Klamath Falls, OR

2:18 PM PST on February 22, 2017 (GMT -0800)
Klamath Falls International

Weather History for KLMT - September, 2013

Change the Weather History Date:

Tuesday, September 17, 2013

  Actual Average Record
Temperature  
Mean Temperature 50 °F 57 °F  
Max Temperature 60 °F 76 °F 90 °F (1991)
Min Temperature 40 °F 39 °F 27 °F (1965)
Degree Days  
Heating Degree Days 15 8  
Month to date heating degree days 49 104  
Since 1 July heating degree days 117 223  
Cooling Degree Days 0 0  
Month to date cooling degree days 17 9  
Year to date cooling degree days 285 168  
Moisture  
Dew Point 44 °F    
Average Humidity 77    
Maximum Humidity 93    
Minimum Humidity 57    
Precipitation  
Precipitation 0.04 in 0.02 in 0.88 in (1989)
Month to date precipitation 0.04 0.32  
Year to date precipitation 4.83 10.06  
Sea Level Pressure  
Sea Level Pressure 29.86 in    
Wind  
Wind Speed 8 mph (WNW)    
Max Wind Speed 22 mph    
Max Gust Speed 26 mph    
Visibility 10 miles    
Events Rain , Thunderstorm    
T = Trace of Precipitation, MM = Missing Value Source: NWS Daily Summary

Daily Weather History Graph

Daily Weather History Graph

Search for Another Location

Airport or City:

Trip Planner

Search our weather history database for the weather conditions in past years. The results will help you decide how hot, cold, wet, or windy it might be!

Date:

Astronomy

Sep. 17, 2013 Rise Set
Actual Time 6:49 AM PDT 7:12 PM PDT
Civil Twilight 6:21 AM PDT 7:40 PM PDT
Nautical Twilight 5:48 AM PDT 8:13 PM PDT
Astronomical Twilight 5:14 AM PDT 8:47 PM PDT
Moon 6:03 PM PDT (9/17) 4:48 AM PDT (9/17)
Length of Visible Light 13h 19m
Length of Day
12h 22m
Waxing Gibbous, 96% of the Moon is Illuminated
Sep 17
Waxing Gibbous
Sep 19
Full
Sep 26
Last Quarter
Oct 4
New
Oct 11
First Quarter

Hourly Weather History & Observations

Time (PDT) Temp. Windchill Dew Point Humidity Pressure Visibility Wind Dir Wind Speed Gust Speed Precip Events Conditions
12:53 AM 57.0 °F - 46.0 °F 67% 29.78 in 10.0 mi Calm Calm - N/A   Scattered Clouds
1:53 AM 53.1 °F - 45.0 °F 74% 29.76 in 10.0 mi SW 3.5 mph - N/A   Partly Cloudy
2:53 AM 51.1 °F - 45.0 °F 80% 29.75 in 10.0 mi Calm Calm - N/A   Mostly Cloudy
3:53 AM 55.0 °F - 45.0 °F 69% 29.73 in 10.0 mi West 4.6 mph - N/A   Mostly Cloudy
4:53 AM 53.1 °F - 45.0 °F 74% 29.73 in 10.0 mi WSW 8.1 mph - N/A Thunderstorm Mostly Cloudy
5:22 AM 53.6 °F - 44.6 °F 72% 29.83 in 10.0 mi West 9.2 mph - N/A   Overcast
5:53 AM 54.0 °F - 46.0 °F 75% 29.73 in 10.0 mi West 8.1 mph - N/A   Overcast
6:53 AM 52.0 °F - 46.9 °F 83% 29.75 in 10.0 mi West 10.4 mph - 0.00 in Rain Light Rain
7:53 AM 51.1 °F - 48.0 °F 89% 29.77 in 6.0 mi WNW 8.1 mph - 0.04 in Rain Light Rain
8:53 AM 52.0 °F - 52.0 °F 100% 29.79 in 6.0 mi NW 3.5 mph - 0.00 in   Overcast
9:39 AM 53.6 °F - 51.8 °F 94% 29.88 in 10.0 mi WSW 5.8 mph - 0.00 in Rain Light Rain
9:53 AM 53.1 °F - 51.1 °F 93% 29.80 in 10.0 mi West 13.8 mph - 0.00 in   Overcast
10:26 AM 53.6 °F - 51.8 °F 94% 29.88 in 10.0 mi West 8.1 mph - 0.00 in   Mostly Cloudy
10:53 AM 55.0 °F - 52.0 °F 89% 29.81 in 10.0 mi West 5.8 mph - 0.00 in   Mostly Cloudy
11:53 AM 57.0 °F - 55.0 °F 93% 29.80 in 10.0 mi Calm Calm - N/A   Mostly Cloudy
12:53 PM 57.9 °F - 44.1 °F 60% 29.80 in 10.0 mi West 16.1 mph 24.2 mph N/A   Overcast
1:48 PM 57.2 °F - 42.8 °F 59% 29.90 in 10.0 mi NW 13.8 mph 19.6 mph 0.00 in   Overcast
1:53 PM 57.0 °F - 43.0 °F 59% 29.84 in 10.0 mi NNW 15.0 mph 20.7 mph 0.00 in   Overcast
2:53 PM 54.0 °F - 43.0 °F 66% 29.86 in 10.0 mi NNW 15.0 mph - 0.00 in   Mostly Cloudy
3:53 PM 55.9 °F - 41.0 °F 57% 29.86 in 10.0 mi NNW 18.4 mph - N/A   Scattered Clouds
4:53 PM 54.0 °F - 41.0 °F 62% 29.89 in 10.0 mi NNW 17.3 mph 25.3 mph N/A   Overcast
5:53 PM 54.0 °F - 41.0 °F 62% 29.91 in 10.0 mi WNW 12.7 mph - N/A   Mostly Cloudy
6:53 PM 51.1 °F - 39.0 °F 63% 29.94 in 10.0 mi West 6.9 mph - N/A   Scattered Clouds
7:53 PM 48.9 °F - 39.0 °F 69% 29.96 in 10.0 mi NNW 9.2 mph - N/A   Partly Cloudy
8:53 PM 46.0 °F 43.1 °F 39.0 °F 76% 30.00 in 10.0 mi SSW 5.8 mph - N/A   Clear
9:53 PM 42.1 °F - 37.9 °F 85% 30.01 in 10.0 mi Calm Calm - N/A   Clear
10:53 PM 45.0 °F 43.5 °F 39.0 °F 80% 30.01 in 10.0 mi NNW 3.5 mph - N/A   Scattered Clouds
11:03 PM 42.8 °F 39.3 °F 39.2 °F 87% 30.06 in 10.0 mi West 5.8 mph - N/A   Mostly Cloudy
11:30 PM 44.6 °F 42.2 °F 39.2 °F 81% 30.06 in 10.0 mi SSW 4.6 mph - N/A   Scattered Clouds
11:53 PM 42.1 °F - 37.9 °F 85% 30.01 in 10.0 mi Calm Calm - N/A   Clear